Weather History for Pinedale, WY

Change the Weather History Date:

Wednesday, June 26, 2013

  Actual Average (KBPI) Record (KBPI)
Temperature  
Mean Temperature 62 °F 58 °F  
Max Temperature 78 °F 76 °F 91 °F (2002)
Min Temperature 46 °F 40 °F 26 °F (1976)
Degree Days  
Heating Degree Days 3 7  
Month to date heating degree days 278  
Since 1 June heating degree days 278  
Since 1 July heating degree days 10404  
Cooling Degree Days 0 0  
Month to date cooling degree days 0  
Year to date cooling degree days 0  
Since 1 June cooling degree days 0  
Growing Degree Days 12 (Base 50)    
Moisture  
Dew Point 39 °F    
Average Humidity 45    
Maximum Humidity 82    
Minimum Humidity 21    
Precipitation  
Precipitation 0.00 in 0.02 in 0.34 in (2009)
Month to date precipitation 0.71  
Year to date precipitation 3.18  
Sea Level Pressure  
Sea Level Pressure 30.25 in    
Wind  
Wind Speed 5 mph (WNW)    
Max Wind Speed 23 mph    
Max Gust Speed 31 mph    
Visibility 10 miles    
Events      
T = Trace of Precipitation, MM = Missing Value Source: NWS Daily Summary

Daily Weather History Graph

Daily Weather History Graph

Search for Another Location

Airport:

Trip Planner

Search our weather history database for the weather conditions in past years. The results will help you decide how hot, cold, wet, or windy it might be!

Date:

Astronomy

Jun. 26, 2013 Rise Set
Actual Time 5:42 AM MDT 9:01 PM MDT
Civil Twilight 5:07 AM MDT 9:36 PM MDT
Nautical Twilight 4:21 AM MDT 10:22 PM MDT
Astronomical Twilight 3:25 AM MDT 11:18 PM MDT
Moon 11:20 PM MDT (6/26) 9:43 AM MDT (6/26)
Length of Visible Light 16h 29m
Length of Day
15h 19m
Waning Gibbous, 85% of the Moon is Illuminated
Jun 26
Waning Gibbous
Jun 29
Last Quarter
Jul 8
New
Jul 15
First Quarter
Jul 22
Full

Hourly Weather History & Observations

Time (MDT) Temp. Dew Point Humidity Pressure Visibility Wind Dir Wind Speed Gust Speed Precip Events Conditions
12:15 AM 50.0 °F 35.6 °F 58% 30.21 in 10.0 mi Calm Calm - N/A   Clear
12:35 AM 46.4 °F 35.6 °F 66% 30.20 in 10.0 mi Calm Calm - N/A   Scattered Clouds
12:55 AM 48.2 °F 35.6 °F 62% 30.20 in 10.0 mi Calm Calm - N/A   Overcast
1:15 AM 46.4 °F 35.6 °F 66% 30.19 in 10.0 mi Calm Calm - N/A   Overcast
1:35 AM 48.2 °F 35.6 °F 62% 30.19 in 10.0 mi Calm Calm - N/A   Overcast
1:55 AM 50.0 °F 35.6 °F 58% 30.19 in 10.0 mi WSW 3.5 mph - N/A   Overcast
2:15 AM 51.8 °F 37.4 °F 58% 30.19 in 10.0 mi West 3.5 mph - N/A   Overcast
2:35 AM 51.8 °F 37.4 °F 58% 30.18 in 10.0 mi Calm Calm - N/A   Overcast
2:55 AM 51.8 °F 39.2 °F 62% 30.18 in 10.0 mi NW 3.5 mph - N/A   Overcast
3:15 AM 51.8 °F 41.0 °F 67% 30.18 in 10.0 mi NW 3.5 mph - N/A   Mostly Cloudy
3:35 AM 51.8 °F 41.0 °F 67% 30.18 in 10.0 mi West 3.5 mph - N/A   Mostly Cloudy
3:55 AM 50.0 °F 41.0 °F 71% 30.18 in 10.0 mi NW 5.8 mph - N/A   Mostly Cloudy
4:15 AM 51.8 °F 41.0 °F 67% 30.18 in 10.0 mi WNW 3.5 mph - N/A   Mostly Cloudy
4:35 AM 51.8 °F 41.0 °F 67% 30.19 in 10.0 mi WNW 4.6 mph - N/A   Mostly Cloudy
4:55 AM 48.2 °F 42.8 °F 82% 30.19 in 10.0 mi WNW 4.6 mph - N/A   Mostly Cloudy
5:15 AM 50.0 °F 42.8 °F 76% 30.19 in 10.0 mi Calm Calm - N/A   Mostly Cloudy
5:35 AM 48.2 °F 41.0 °F 76% 30.21 in 10.0 mi NW 4.6 mph - N/A   Mostly Cloudy
5:55 AM 46.4 °F 41.0 °F 81% 30.21 in 10.0 mi Calm Calm - N/A   Overcast
6:15 AM 50.0 °F 41.0 °F 71% 30.22 in 10.0 mi Calm Calm - N/A   Overcast
6:35 AM 50.0 °F 41.0 °F 71% 30.22 in 10.0 mi Calm Calm - N/A   Mostly Cloudy
6:55 AM 51.8 °F 41.0 °F 67% 30.23 in 10.0 mi Calm Calm - N/A   Scattered Clouds
7:15 AM 51.8 °F 41.0 °F 67% 30.23 in 10.0 mi Calm Calm - N/A   Scattered Clouds
7:35 AM 53.6 °F 42.8 °F 67% 30.24 in 10.0 mi Calm Calm - N/A   Scattered Clouds
7:55 AM 55.4 °F 42.8 °F 63% 30.24 in 10.0 mi WNW 3.5 mph - N/A   Scattered Clouds
8:15 AM 57.2 °F 42.8 °F 59% 30.24 in 10.0 mi WNW 3.5 mph - N/A   Scattered Clouds
8:55 AM 60.8 °F 41.0 °F 48% 30.25 in 10.0 mi NW 4.6 mph - N/A   Clear
9:15 AM 62.6 °F 39.2 °F 42% 30.25 in 10.0 mi NW 4.6 mph - N/A   Scattered Clouds
9:35 AM 64.4 °F 37.4 °F 37% 30.26 in 10.0 mi NW 9.2 mph - N/A   Mostly Cloudy
9:55 AM 64.4 °F 37.4 °F 37% 30.26 in 10.0 mi WNW 8.1 mph - N/A   Mostly Cloudy
10:15 AM 68.0 °F 37.4 °F 33% 30.26 in 10.0 mi NNW 8.1 mph - N/A   Scattered Clouds
10:35 AM 68.0 °F 39.2 °F 35% 30.26 in 10.0 mi NNW 8.1 mph - N/A   Clear
10:55 AM 69.8 °F 39.2 °F 33% 30.26 in 10.0 mi NNW 5.8 mph - N/A   Clear
11:15 AM 69.8 °F 39.2 °F 33% 30.26 in 10.0 mi NNW 4.6 mph - N/A   Clear
11:35 AM 69.8 °F 39.2 °F 33% 30.26 in 10.0 mi NW 6.9 mph - N/A   Clear
11:55 AM 71.6 °F 41.0 °F 33% 30.27 in 10.0 mi NW 10.4 mph 16.1 mph N/A   Clear
12:15 PM 73.4 °F 41.0 °F 31% 30.26 in 10.0 mi WNW 11.5 mph 20.7 mph N/A   Clear
12:35 PM 73.4 °F 41.0 °F 31% 30.27 in 10.0 mi NW 11.5 mph 16.1 mph N/A   Mostly Cloudy
12:55 PM 71.6 °F 41.0 °F 33% 30.27 in 10.0 mi NW 10.4 mph - N/A   Mostly Cloudy
1:15 PM 73.4 °F 41.0 °F 31% 30.26 in 10.0 mi WNW 4.6 mph - N/A   Scattered Clouds
1:35 PM 75.2 °F 41.0 °F 29% 30.26 in 10.0 mi North 3.5 mph - N/A   Mostly Cloudy
1:55 PM 73.4 °F 39.2 °F 29% 30.25 in 10.0 mi WNW 4.6 mph - N/A   Mostly Cloudy
2:15 PM 78.8 °F 35.6 °F 21% 30.26 in 10.0 mi West 13.8 mph 27.6 mph N/A   Scattered Clouds
2:35 PM 78.8 °F 35.6 °F 21% 30.26 in 10.0 mi West 18.4 mph 25.3 mph N/A   Scattered Clouds
2:55 PM 77.0 °F 37.4 °F 24% 30.26 in 10.0 mi West 23.0 mph 27.6 mph N/A   Scattered Clouds
3:15 PM 78.8 °F 37.4 °F 23% 30.26 in 10.0 mi NW 16.1 mph 28.8 mph N/A   Scattered Clouds
3:35 PM 77.0 °F 37.4 °F 24% 30.26 in 10.0 mi West 21.9 mph 31.1 mph N/A   Scattered Clouds
3:55 PM 78.8 °F 37.4 °F 23% 30.26 in 10.0 mi WNW 17.3 mph 26.5 mph N/A   Mostly Cloudy
4:15 PM 78.8 °F 37.4 °F 23% 30.26 in 10.0 mi West 18.4 mph 24.2 mph N/A   Mostly Cloudy
4:35 PM 78.8 °F 37.4 °F 23% 30.26 in 10.0 mi West 19.6 mph 31.1 mph N/A   Scattered Clouds
4:55 PM 78.8 °F 35.6 °F 21% 30.26 in 10.0 mi West 13.8 mph 25.3 mph N/A   Scattered Clouds
5:15 PM 77.0 °F 37.4 °F 24% 30.26 in 10.0 mi WNW 15.0 mph 25.3 mph N/A   Scattered Clouds
5:35 PM 77.0 °F 37.4 °F 24% 30.27 in 10.0 mi West 20.7 mph 26.5 mph N/A   Mostly Cloudy
5:55 PM 77.0 °F 37.4 °F 24% 30.27 in 10.0 mi WNW 20.7 mph 28.8 mph N/A   Mostly Cloudy
6:15 PM 77.0 °F 37.4 °F 24% 30.27 in 10.0 mi WNW 16.1 mph 24.2 mph N/A   Mostly Cloudy
6:35 PM 77.0 °F 37.4 °F 24% 30.27 in 10.0 mi NW 18.4 mph 24.2 mph N/A   Scattered Clouds
6:55 PM 77.0 °F 37.4 °F 24% 30.27 in 10.0 mi NW 13.8 mph - N/A   Clear
7:15 PM 75.2 °F 37.4 °F 25% 30.27 in 10.0 mi NNW 12.7 mph 20.7 mph N/A   Scattered Clouds
7:35 PM 75.2 °F 39.2 °F 27% 30.28 in 10.0 mi NW 11.5 mph 19.6 mph N/A   Clear
7:55 PM 73.4 °F 39.2 °F 29% 30.29 in 10.0 mi NNW 11.5 mph - N/A   Clear
8:15 PM 71.6 °F 41.0 °F 33% 30.29 in 10.0 mi NNW 11.5 mph - N/A   Clear
8:35 PM 69.8 °F 41.0 °F 35% 30.30 in 10.0 mi NNW 4.6 mph - N/A   Clear
8:55 PM 68.0 °F 41.0 °F 37% 30.30 in 10.0 mi Calm Calm - N/A   Clear
9:15 PM 64.4 °F 41.0 °F 42% 30.31 in 10.0 mi West 3.5 mph - N/A   Clear
9:35 PM 60.8 °F 41.0 °F 48% 30.32 in 10.0 mi WNW 6.9 mph - N/A   Clear
9:55 PM 59.0 °F 41.0 °F 51% 30.33 in 10.0 mi West 8.1 mph - N/A   Clear
10:15 PM 59.0 °F 42.8 °F 55% 30.34 in 7.0 mi West 6.9 mph - N/A   Clear
10:35 PM 59.0 °F 41.0 °F 51% 30.35 in 10.0 mi West 8.1 mph - N/A   Clear
10:55 PM 55.4 °F 41.0 °F 58% 30.35 in 10.0 mi West 3.5 mph - N/A   Clear
11:15 PM 53.6 °F 41.0 °F 62% 30.35 in 10.0 mi Calm Calm - N/A   Clear
11:35 PM 55.4 °F 42.8 °F 63% 30.36 in 10.0 mi North 4.6 mph - N/A   Clear